This is the latest recevied weather packets stored in our database for station/object KR4CWL-13. If no packets are shown the sender has not sent any weather packets the latest 10 day(s).
| Time | Temp. | Humidity | Pressure | Rain* | Wind** | Luminosity | Snow |
|---|---|---|---|---|---|---|---|
| 1777319015 | 20° C | 48% | 1013.5 hPa | 0 mm | - | - | - |
| 1777318416 | 20° C | 46% | 1013.5 hPa | 0 mm | - | - | - |
| 1777317815 | 20.56° C | 47% | 1013.9 hPa | 0 mm | - | - | - |
| 1777317215 | 20.56° C | 48% | 1013.9 hPa | 0 mm | - | - | - |
| 1777316615 | 20.56° C | 47% | 1013.9 hPa | 0 mm | - | - | - |
| 1777316015 | 20.56° C | 47% | 1014.2 hPa | 0 mm | - | - | - |
| 1777315415 | 20.56° C | 46% | 1014.2 hPa | 0 mm | - | - | - |
| 1777314815 | 19.44° C | 47% | 1014.2 hPa | 0 mm | - | - | - |
| 1777314215 | 20.56° C | 46% | 1014.2 hPa | 0 mm | - | - | - |
| 1777313615 | 20.56° C | 46% | 1014.6 hPa | 0 mm | - | - | - |
| 1777313015 | 20.56° C | 46% | 1014.6 hPa | 0 mm | - | - | - |
| 1777312415 | 21.11° C | 46% | 1014.2 hPa | 0 mm | - | - | - |
| 1777311815 | 20.56° C | 46% | 1014.6 hPa | 0 mm | - | - | - |
| 1777311215 | 20.56° C | 45% | 1014.9 hPa | 0 mm | - | - | - |
| 1777310615 | 21.11° C | 45% | 1014.9 hPa | 0 mm | - | - | - |
| 1777310015 | 21.11° C | 46% | 1014.9 hPa | 0 mm | - | - | - |
| 1777309415 | 21.11° C | 45% | 1014.9 hPa | 0 mm | - | - | - |
| 1777308815 | 21.11° C | 45% | 1014.9 hPa | 0 mm | - | - | - |
| 1777308215 | 20.56° C | 45% | 1015.2 hPa | 0 mm | - | - | - |
| 1777307615 | 20° C | 45% | 1015.2 hPa | 0 mm | - | - | - |
| 1777307015 | 20° C | 45% | 1015.2 hPa | 0 mm | - | - | - |
| 1777306415 | 20° C | 47% | 1015.2 hPa | 0 mm | - | - | - |
| 1777305815 | 20° C | 47% | 1015.6 hPa | 0 mm | - | - | - |
| 1777305215 | 20° C | 45% | 1015.6 hPa | 0 mm | - | - | - |
| 1777304615 | 19.44° C | 49% | 1015.6 hPa | 0 mm | - | - | - |
* Rain since midnight (hover to see other rain measurements)
** Current wind speed in m/s (hover to see current wind gust speed)